Home   Weather   Broken Hill   Past weeks

Flag for Australia Past Weather in Broken Hill, New South Wales, Australia — Yesterday and Last 2 Weeks

Now
45 °F

Cool.


Feels Like: 42 °F
Forecast: 46 / 68 °F
Wind: 6 mph from North

Location: Yunta

Current Time: Sep 26, 2016 at 3:01:05 AM

Latest Report: Sep 26, 2016 at 1:30 AM


Visibility: N/A

Pressure: 29.98 "Hg

Humidity: 86%

Dew Point: 41 °F

Location of Broken HillLocation

Past Weather in Broken Hill — Graph

°F

Broken Hill Temperature Yesterday

Maximum temperature yesterday: 60 °F (at 4:30 PM)
Minimum temperature yesterday: 38 °F (at 6:00 AM)
Average temperature yesterday: 51 °F

High & Low Weather Summary for the Past Weeks

 TemperatureHumidityPressure
High71 °F (Sep 12, 1:30 PM)93% (Sep 13, 4:30 AM)30.14 "Hg (Sep 13, 4:30 AM)
Low36 °F (Sep 23, 5:30 AM)27% (Sep 12, 2:30 PM)29.67 "Hg (Sep 24, 2:30 PM)
Average52 °F70%29.94 "Hg
* Reported Sep 11 1:30 AM — Sep 26 1:30 AM, Broken Hill, Weather by CustomWeather, © 2016

Note: Actual official high and low records may vary slightly from our data, if they occured in-between our weather recording intervals... More about our weather records

Advertising

Broken Hill Weather History for the Previous 24 Hours

Scroll right to see more
 ConditionsComfort  
Time TempWeatherWind HumidityBarometerVisibility
1:30 AM
Mon, Sep 26
45 °FCool.6 mph86%29.98 "HgN/A
12:00 AM48 °FCool.3 mph80%29.99 "HgN/A
11:30 PM
Sun, Sep 25
48 °FCool.2 mph80%30.00 "HgN/A
10:30 PM49 °FCool.3 mph79%30.01 "HgN/A
9:00 PM50 °FCool.No wind79%29.99 "HgN/A
8:30 PM49 °FCool.No wind81%29.98 "HgN/A
7:30 PM50 °FCool.3 mph73%29.96 "HgN/A
6:00 PM57 °FRefreshingly cool.5 mph51%29.93 "HgN/A
5:30 PM58 °FRefreshingly cool.8 mph45%29.92 "HgN/A
4:30 PM60 °FRefreshingly cool.7 mph43%29.91 "HgN/A
3:00 PM58 °FRefreshingly cool.6 mph42%29.92 "HgN/A
2:30 PM60 °FRefreshingly cool.6 mph46%29.93 "HgN/A
1:30 PM59 °FRefreshingly cool.6 mph45%29.93 "HgN/A
12:00 PM57 °FRefreshingly cool.7 mph49%29.98 "HgN/A
11:30 AM56 °FRefreshingly cool.8 mph49%29.99 "HgN/A
10:30 AM56 °FRefreshingly cool.7 mph51%30.00 "HgN/A
9:00 AM52 °FCool.10 mph58%30.01 "HgN/A
8:30 AM51 °FCool.9 mph64%30.01 "HgN/A
7:30 AM46 °FCool.2 mph83%30.00 "HgN/A
6:00 AM38 °FChilly.No wind88%29.96 "HgN/A
5:30 AM40 °FChilly.2 mph88%29.94 "HgN/A
4:30 AM40 °FChilly.No wind90%29.92 "HgN/A
3:00 AM42 °FQuite cool.5 mph89%29.90 "HgN/A
Weather by CustomWeather, © 2016

See weather overviewHow to use our weather pages